Preview of NWS' New Version of Forecast
This preview is not operational and should not be used for support decisions.

Regional Weather Roundup (RWR)

Issued by National Weather Service (NWS)

                            
274 
ASUS43 KBIS 212331
RWRND 
NORTH DAKOTA REGIONAL WEATHER ROUNDUP
NATIONAL WEATHER SERVICE EASTERN NORTH DAKOTA/GRAND FORKS ND
600 PM CDT THU JUN 21 2018

  NOTE: "FAIR" INDICATES FEW OR NO CLOUDS BELOW 12,000 FEET WITH NO
  SIGNIFICANT WEATHER AND/OR OBSTRUCTIONS TO VISIBILITY.

NDZ001>003-009>011-017-220000-
...NORTHWEST NORTH DAKOTA...
  
CITY           SKY/WX    TMP DP  RH WIND       PRES   REMARKS
WILLISTON      FAIR      85  48  27 S8        29.92F                  
MINOT          FAIR      81  53  37 S7        29.93F                  
MINOT AFB      FAIR      81  53  37 S6        29.92F                  
$$

NDZ018>021-031>035-040>046-220000-
...SOUTHWEST NORTH DAKOTA...
  
CITY           SKY/WX    TMP DP  RH WIND       PRES   REMARKS
BISMARCK       FAIR      84  52  33 SW8       29.96F                  
DICKINSON      FAIR      78  51  38 S8        29.96F                  
GARRISON         N/A     77  57  50 CALM      29.95F                  
HETTINGER      FAIR      79  46  31 S7        29.98F                  
$$

NDZ004>008-012>016-024-026-027-054-220000-
...NORTHEAST NORTH DAKOTA...
  
CITY           SKY/WX    TMP DP  RH WIND       PRES   REMARKS
GRAND FORKS    PTSUNNY   86  61  42 CALM      29.88F                  
GRAND FORKS AF PTSUNNY   86  58  37 E6        29.89F                  
DEVILS LAKE    NOT AVBL                                               
$$

NDZ022-023-025-028>030-036>039-047>053-220000-
...SOUTHEAST NORTH DAKOTA...
  
CITY           SKY/WX    TMP DP  RH WIND       PRES   REMARKS
JAMESTOWN      FAIR      83  57  41 S5        29.92F                  
FARGO          FAIR      85  58  39 E7        29.89F                  
WAHPETON       FAIR      82  50  32 SE5       29.91S                  
$$